Location: Marysville Observatory
(48.1092°N, 122.1645°W)
Time: 20:40:38
(UTC-08:00)

Amateur Radio Satellites - All Passes

Search period start: 18 January 2017 20:10
Search period end: 19 January 2017 20:10
Location: Marysville Observatory, 48.1092°N, 122.1645°W

Satellite Date Start Highest point End Downlink Frequencies (MHz)
Time Altitude Azimuth
HUMSAT D 18 Jan 20:12:04 20:14:57 19° 62° (ENE) 20:17:52 437.325/437.525
SEEDS 18 Jan 20:18:09 20:21:18 20° 269° (W) 20:24:28 437.485
Oscar 11 18 Jan 20:22:35 20:26:54 77° 257° (WSW) 20:31:16 145.826/435.025
CUBEBUG 2 18 Jan 20:24:31 20:28:00 26° 266° (W) 20:31:30 437.445
AIST 2 18 Jan 20:26:24 20:30:29 68° 125° (SE) 20:34:41 435.215
COMPASS 1 18 Jan 20:26:55 20:30:17 23° 267° (W) 20:33:42 437.405
BEESAT 2 18 Jan 20:27:48 20:28:56 11° 339° (NNW) 20:30:04 435.950
PRISM 18 Jan 20:28:38 20:30:50 14° 90° (E) 20:33:00 437.425
GONETS M04 18 Jan 20:30:36 20:39:20 87° 279° (W) 20:48:10
DELFI C3 18 Jan 20:37:47 20:41:42 55° 72° (ENE) 20:45:40 145.870
AAUSAT CUBESAT 2 18 Jan 20:40:19 20:43:34 22° 268° (W) 20:46:51 437.432
Cosmos 2499 18 Jan 20:40:54 20:49:14 63° 284° (WNW) 20:57:00 435.465 / 435.565
AO-85 18 Jan 20:45:46 20:47:53 14° 26° (NNE) 20:49:58 145.980
UWE-3 18 Jan 20:57:35 21:00:32 19° 268° (W) 21:03:30 435.000/436.395/437.385
FUNcube-1 18 Jan 20:57:37 21:01:17 31° 264° (W) 21:05:00 145.935
ZACube-1 18 Jan 21:20:43 21:23:33 18° 269° (W) 21:26:23 437.345
CUBEBUG 1 18 Jan 21:44:25 21:47:18 17° 60° (ENE) 21:50:12 437.445
HUMSAT D 18 Jan 21:46:15 21:50:14 49° 261° (W) 21:54:17 437.325/437.525
STRAND 1 18 Jan 21:51:17 21:52:55 11° 308° (NW) 21:54:33 437.568
UNISAT 6 18 Jan 21:52:30 21:56:34 35° 97° (E) 22:00:41 437.425
AISAT 18 Jan 21:56:13 21:58:56 16° 59° (ENE) 22:01:38 437.250
PRISM 18 Jan 22:02:26 22:06:33 62° 287° (WNW) 22:10:34 437.425
AIST 2 18 Jan 22:06:06 22:09:23 22° 325° (NW) 22:12:44 435.215
TIGRISAT 18 Jan 22:06:20 22:10:33 45° 99° (E) 22:14:51 435.000
ESTCUBE 1 18 Jan 22:08:40 22:12:58 44° 69° (ENE) 22:17:19 437.505/2401.250
BY70-1 18 Jan 22:10:32 22:13:33 88° 65° (ENE) 22:16:50 436.1900
DELFI C3 18 Jan 22:14:31 22:16:52 15° 270° (W) 22:19:13 145.870
JAS-2 18 Jan 22:16:17 22:22:26 31° 93° (E) 22:29:02 435.910
ANTELSAT 18 Jan 22:21:01 22:25:24 67° 102° (ESE) 22:29:53 437.575/2403.000
RS-15 18 Jan 22:24:52 22:33:50 26° 100° (E) 22:43:00 29.354- 29.394
AO-85 18 Jan 22:25:12 22:29:09 59° 49° (NE) 22:32:59 145.980
VELOX 1 18 Jan 22:28:21 22:32:10 29° 65° (ENE) 22:36:00 145.980
GONETS M04 18 Jan 22:30:59 22:37:35 23° 303° (WNW) 22:44:15
POPSAT HIP 1 18 Jan 22:36:15 22:36:38 10° 87° (E) 22:37:02 437.405
Cosmos 2499 18 Jan 22:39:38 22:44:05 15° 307° (NW) 22:48:22 435.465 / 435.565
DUCHIFAT 1 18 Jan 22:48:09 22:49:50 12° 88° (E) 22:51:30 145.980
NANOSAT C BR1 18 Jan 22:52:09 22:54:32 15° 90° (E) 22:56:56 145.865
BEESAT 3 18 Jan 23:05:16 23:07:12 13° 26° (NNE) 23:09:07 437.485
DX 1 18 Jan 23:06:11 23:10:09 34° 67° (ENE) 23:14:07 434.975-435.025
UKube-1 18 Jan 23:09:10 23:12:51 28° 65° (ENE) 23:16:32 .
SPROUT 18 Jan 23:09:58 23:14:05 51° 71° (ENE) 23:18:13 437.525
TISAT 1 18 Jan 23:12:27 23:13:10 10° 56° (NE) 23:13:53 437.305
CUBEBUG 1 18 Jan 23:18:46 23:23:09 63° 259° (W) 23:27:32 437.445
50 SAT 18 Jan 23:20:36 23:24:10 68° 73° (ENE) 23:27:45 437.505
UNISAT 6 18 Jan 23:29:26 23:33:11 28° 294° (WNW) 23:36:59 437.425
BUGSAT 1 18 Jan 23:30:04 23:31:37 12° 89° (E) 23:33:10 437.445
AISAT 18 Jan 23:30:26 23:34:53 70° 258° (WSW) 23:39:20 437.250
ISS 18 Jan 23:34:16 23:37:25 47° 148° (SSE) 23:40:34 145.825
QB50P1 18 Jan 23:42:05 23:46:12 50° 100° (E) 23:50:19 145.935-145.965
TIGRISAT 18 Jan 23:43:35 23:47:01 23° 296° (WNW) 23:50:29 435.000
POLYITAN 1 18 Jan 23:45:40 23:49:49 55° 100° (E) 23:53:58 437.675
BEESAT 2 18 Jan 23:45:59 23:48:14 14° 27° (NNE) 23:50:28 435.950
ESTCUBE 1 18 Jan 23:46:23 23:49:59 23° 267° (W) 23:53:36 437.505/2401.250
QB50P2 18 Jan 23:46:49 23:51:01 60° 101° (E) 23:55:12 145.880/145.840
PCSat 18 Jan 23:52:09 23:54:41 13° 103° (ESE) 23:57:14 145.827
YUBILEINY 18 Jan 23:53:30 00:00:48 28° 60° (ENE) 00:08:01 435.215
ANTELSAT 18 Jan 23:58:54 00:01:40 17° 300° (WNW) 00:04:27 437.575/2403.000
JAS-2 19 Jan 00:00:57 00:07:47 64° 290° (WNW) 00:15:18 435.910
VELOX 1 19 Jan 00:04:27 00:08:31 35° 263° (W) 00:12:37 145.980
AO-85 19 Jan 00:06:40 00:09:05 16° 247° (WSW) 00:11:29 145.980
POPSAT HIP 1 19 Jan 00:08:47 00:13:01 88° 293° (WNW) 00:17:15 437.405
Cosmos 2504 19 Jan 00:18:47 00:23:46 18° 55° (NE) 00:28:35 435.465 / 435.565
DUCHIFAT 1 19 Jan 00:21:50 00:26:02 74° 286° (WNW) 00:30:13 145.980
AIST 1 19 Jan 00:24:03 00:27:49 29° 71° (ENE) 00:31:33
NANOSAT C BR1 19 Jan 00:26:30 00:30:40 61° 287° (WNW) 00:34:48 145.865
RS-15 19 Jan 00:32:31 00:44:27 83° 124° (SE) 00:56:53 29.354- 29.394
Oscar 19 19 Jan 00:35:31 00:39:11 19° 90° (E) 00:42:49 437.125/150
BEESAT 19 Jan 00:36:29 00:39:47 19° 59° (ENE) 00:43:05 436.000
SWISSCUBE 19 Jan 00:37:38 00:41:10 21° 60° (ENE) 00:44:44 437.505
Gurwin Techsat 1B 19 Jan 00:37:51 00:39:12 11° 85° (E) 00:40:33 435.225
BEESAT 3 19 Jan 00:41:48 00:45:43 51° 48° (NE) 00:49:37 437.485
DX 1 19 Jan 00:42:36 00:46:22 28° 264° (W) 00:50:09 434.975-435.025
TISAT 1 19 Jan 00:43:54 00:48:05 79° 73° (ENE) 00:52:16 437.305
UKube-1 19 Jan 00:44:51 00:48:47 34° 263° (W) 00:52:45 .
SPROUT 19 Jan 00:47:24 00:50:18 18° 269° (W) 00:53:13 437.525
Cosmos 2491 19 Jan 00:48:30 00:54:46 23° 77° (ENE) 01:01:02 435.465 / 435.565
BUGSAT 1 19 Jan 01:03:26 01:07:28 70° 286° (WNW) 01:11:29 437.445
ISS 19 Jan 01:10:43 01:13:55 51° 348° (NNW) 01:17:07 145.825
QB50P1 19 Jan 01:18:39 01:21:39 19° 298° (WNW) 01:24:39 145.935-145.965
POLYITAN 1 19 Jan 01:22:22 01:25:14 18° 299° (WNW) 01:28:06 437.675
BEESAT 2 19 Jan 01:22:49 01:26:50 59° 49° (NE) 01:30:50 435.950
QB50P2 19 Jan 01:23:42 01:26:24 17° 299° (WNW) 01:29:04 145.880/145.840
M-CUBED/EXP-1 PRIME 19 Jan 01:29:27 01:31:45 14° 55° (NE) 01:33:58 437.505
PCSat 19 Jan 01:31:47 01:37:12 80° 122° (ESE) 01:42:39 145.827
ITUPSAT 1 19 Jan 01:36:37 01:41:17 59° 71° (ENE) 01:46:00 437.325
POPSAT HIP 1 19 Jan 01:46:41 01:48:08 12° 303° (WNW) 01:49:35 437.405
JAS-2 19 Jan 01:47:45 01:51:44 16° 309° (NW) 01:55:56 435.910
YUBILEINY 19 Jan 01:49:49 01:58:41 81° 264° (W) 02:07:27 435.215
AIST 1 19 Jan 02:01:40 02:05:21 29° 271° (W) 02:09:02
AO-7 19 Jan 02:01:48 02:05:50 14° 84° (E) 02:09:50 29.400- 29.500
AUBIESAT-1 19 Jan 02:06:14 02:09:39 24° 60° (ENE) 02:12:54 437.475
Cosmos 2504 19 Jan 02:11:01 02:18:36 81° 80° (E) 02:25:48 435.465 / 435.565
BEESAT 19 Jan 02:12:22 02:17:05 66° 258° (WSW) 02:21:51 436.000
Oscar 19 19 Jan 02:13:50 02:18:59 65° 289° (WNW) 02:24:05 437.125/150
SWISSCUBE 19 Jan 02:13:54 02:18:34 57° 259° (WSW) 02:23:18 437.505
Gurwin Techsat 1B 19 Jan 02:14:44 02:20:04 74° 103° (ESE) 02:25:23 435.225
CUSAT 1 19 Jan 02:15:41 02:19:30 20° 78° (ENE) 02:23:56 437.405
BEESAT 3 19 Jan 02:20:03 02:23:01 20° 246° (WSW) 02:25:59 437.485
MOZHAYETS 4 19 Jan 02:22:21 02:26:46 51° 70° (ENE) 02:31:14
TISAT 1 19 Jan 02:22:56 02:24:16 11° 272° (W) 02:25:35 437.305
STARS 19 Jan 02:37:25 02:39:45 14° 58° (ENE) 02:42:04 437.465
Cosmos 2491 19 Jan 02:41:43 02:50:27 87° 279° (W) 02:59:15 435.465 / 435.565
RS-15 19 Jan 02:46:45 02:58:20 47° 332° (NNW) 03:10:11 29.354- 29.394
ISS 19 Jan 02:47:35 02:50:44 46° 8° (N) 02:53:54 145.825
ITAMSAT 1 19 Jan 02:53:12 02:58:01 36° 97° (E) 03:02:49 435.822/435.867
M-CUBED/EXP-1 PRIME 19 Jan 03:01:22 03:05:46 81° 251° (WSW) 03:09:53 437.505
BEESAT 2 19 Jan 03:01:28 03:04:14 18° 247° (WSW) 03:06:58 435.950
CUBESAT XI-V 19 Jan 03:04:29 03:08:19 25° 63° (ENE) 03:12:10 437.345
AIST 2 19 Jan 03:06:23 03:09:55 24° 37° (NE) 03:13:26 435.215
KKS-1 19 Jan 03:13:36 03:17:58 58° 72° (ENE) 03:22:21 437.445
ITUPSAT 1 19 Jan 03:16:10 03:19:31 19° 269° (W) 03:22:53 437.325
PCSat 19 Jan 03:16:48 03:21:14 25° 324° (NW) 03:25:41 145.827
AUBIESAT-1 19 Jan 03:39:53 03:43:54 39° 255° (WSW) 03:47:43 437.475
YUBILEINY 19 Jan 03:48:25 03:54:01 19° 286° (WNW) 03:59:38 435.215
AO-7 19 Jan 03:51:55 04:00:17 65° 105° (ESE) 04:08:33 29.400- 29.500
CUSAT 1 19 Jan 03:55:10 04:00:21 73° 284° (WNW) 04:07:09 437.405
Oscar 19 19 Jan 03:55:29 03:57:21 12° 308° (NW) 03:59:12 437.125/150
Gurwin Techsat 1B 19 Jan 03:55:43 03:59:28 20° 303° (WNW) 04:03:13 435.225
MOZHAYETS 4 19 Jan 04:00:49 04:04:13 20° 269° (W) 04:07:39
Cosmos 2504 19 Jan 04:05:47 04:10:58 21° 282° (WNW) 04:16:00 435.465 / 435.565
STARS 19 Jan 04:11:07 04:15:30 79° 255° (WSW) 04:19:55 437.465
PHONESAT 2.4 19 Jan 04:18:35 04:19:44 13° 176° (S) 04:20:53 2401.200-2431.200
ISS 19 Jan 04:24:06 04:27:20 66° 207° (SSW) 04:30:34 145.825
BRITE-PL 19 Jan 04:29:24 04:33:46 29° 92° (E) 04:37:49 437.365/2234.400
DANDE 19 Jan 04:31:18 04:35:09 74° 100° (E) 04:40:25 436.750
ITAMSAT 1 19 Jan 04:32:46 04:37:28 35° 295° (WNW) 04:42:10 435.822/435.867
Cosmos 2499 19 Jan 04:37:13 04:40:04 12° 50° (NE) 04:42:53 435.465 / 435.565
CUBESAT XI-V 19 Jan 04:40:58 04:45:28 45° 262° (W) 04:50:01 437.345
GONETS M04 19 Jan 04:41:09 04:45:57 15° 48° (NE) 04:50:44
Cosmos 2491 19 Jan 04:42:06 04:48:42 23° 303° (WNW) 04:55:22 435.465 / 435.565
GOMX 1 19 Jan 04:42:13 04:44:45 15° 87° (E) 04:47:11 467.674
AIST 2 19 Jan 04:44:31 04:48:43 60° 237° (WSW) 04:52:54 435.215
KKS-1 19 Jan 04:52:00 04:54:54 17° 269° (W) 04:57:50 437.445
RS-15 19 Jan 05:03:32 05:14:41 37° 6° (N) 05:25:48 29.354- 29.394
PCSat 19 Jan 05:05:12 05:06:41 11° 349° (N) 05:08:10 145.827
DOVE 4 19 Jan 05:28:36 05:31:15 16° 89° (E) 05:33:53 437.250
CUTE-I 19 Jan 05:32:31 05:36:36 22° 91° (E) 05:40:40 437.470
CUSAT 1 19 Jan 05:40:26 05:43:55 16° 310° (NW) 05:47:51 437.405
LilacSat-2 19 Jan 05:43:26 05:46:42 25° 95° (E) 05:49:57 437.200
AO-7 19 Jan 05:45:12 05:52:37 37° 306° (NW) 06:00:01 29.400- 29.500
HORYU 2 19 Jan 05:47:08 05:51:36 71° 103° (ESE) 05:56:02 437.375
STRAND 1 19 Jan 05:50:24 05:55:07 40° 66° (ENE) 05:59:52 437.568
PHONESAT 2.4 19 Jan 05:52:47 05:53:16 10° 192° (SSW) 05:53:45 2401.200-2431.200
ISS 19 Jan 06:01:49 06:03:18 13° 225° (SW) 06:04:47 145.825
NOAA 18 19 Jan 06:07:38 06:12:01 24° 93° (E) 06:16:23 137.9125
BRITE-PL 19 Jan 06:07:40 06:12:22 38° 293° (WNW) 06:16:41 437.365/2234.400
O/OREOS (USA 219) 19 Jan 06:13:38 06:17:35 31° 105° (ESE) 06:21:32 437.305
Cubesat XI-IV 19 Jan 06:14:33 06:19:43 47° 99° (E) 06:24:51 437.490
DANDE 19 Jan 06:16:26 06:19:00 15° 307° (NW) 06:21:58 436.750
GOMX 1 19 Jan 06:18:53 06:23:25 64° 287° (WNW) 06:27:39 467.674
Cosmos 2499 19 Jan 06:28:00 06:35:10 58° 75° (ENE) 06:42:05 435.465 / 435.565
NOAA 15 19 Jan 06:28:40 06:34:00 65° 102° (ESE) 06:39:15 137.62
GONETS M04 19 Jan 06:36:23 06:45:07 59° 74° (ENE) 06:53:48
PCSat 19 Jan 06:50:37 06:52:43 12° 16° (NNE) 06:54:49 145.827
HO-68 19 Jan 06:55:21 07:01:20 28° 92° (E) 07:07:16 435.675
SO-50 19 Jan 07:02:52 07:03:58 11° 108° (ESE) 07:05:05 436.795
DOVE 4 19 Jan 07:05:13 07:09:22 52° 289° (WNW) 07:13:24 437.250
CINEMA 3 19 Jan 07:06:37 07:10:32 39° 98° (E) 07:14:31 145.822/145.860
CUTE-I 19 Jan 07:11:47 07:17:02 60° 290° (WNW) 07:22:17 437.470
CUTE 1.7 + AOD 2 19 Jan 07:14:17 07:18:03 28° 94° (E) 07:21:46 437.475
LilacSat-2 19 Jan 07:17:36 07:20:59 29° 292° (WNW) 07:24:22 437.200
RS-15 19 Jan 07:18:09 07:30:25 59° 38° (NE) 07:42:20 29.354- 29.394
PRISM 19 Jan 07:21:06 07:23:56 18° 61° (ENE) 07:26:46 437.425
HORYU 2 19 Jan 07:24:55 07:27:38 16° 301° (WNW) 07:30:21 437.375
STRAND 1 19 Jan 07:29:53 07:34:23 31° 265° (W) 07:38:54 437.568
AO-7 19 Jan 07:40:08 07:43:01 12° 331° (NNW) 07:45:54 29.400- 29.500
CANX-2 19 Jan 07:42:53 07:47:12 64° 101° (E) 07:51:28 2200.000
NOAA 18 19 Jan 07:47:41 07:53:02 56° 291° (WNW) 07:58:21 137.9125
ANTELSAT 19 Jan 07:49:55 07:51:25 12° 57° (ENE) 07:52:54 437.575/2403.000
O/OREOS (USA 219) 19 Jan 07:52:51 07:56:56 34° 305° (NW) 08:01:02 437.305
Cubesat XI-IV 19 Jan 07:55:03 07:59:35 29° 298° (WNW) 08:04:07 437.490
SEEDS 19 Jan 07:56:54 08:01:06 53° 100° (E) 08:05:15 437.485
COMPASS 1 19 Jan 08:05:00 08:09:03 43° 98° (E) 08:13:03 437.405
Oscar 11 19 Jan 08:07:17 08:09:57 16° 89° (E) 08:12:36 145.826/435.025
NOAA 15 19 Jan 08:09:18 08:13:19 22° 301° (WNW) 08:17:20 137.62
CUBEBUG 2 19 Jan 08:10:18 08:14:27 46° 99° (E) 08:18:42 437.445
AAUSAT CUBESAT 2 19 Jan 08:17:40 08:21:44 45° 99° (E) 08:25:44 437.432
Cosmos 2499 19 Jan 08:21:51 08:27:48 29° 277° (W) 08:33:37 435.465 / 435.565
PCSat 19 Jan 08:33:08 08:37:57 30° 41° (NE) 08:42:44 145.827
GONETS M04 19 Jan 08:33:46 08:41:34 37° 276° (W) 08:49:23
JAS-2 19 Jan 08:35:08 08:38:38 17° 52° (NE) 08:42:20 435.910
SO-50 19 Jan 08:38:56 08:43:39 73° 125° (SE) 08:48:17 436.795
FUNcube-1 19 Jan 08:41:03 08:45:05 36° 97° (E) 08:49:11 145.935
UWE-3 19 Jan 08:41:29 08:45:47 63° 102° (ESE) 08:50:11 435.000/436.395/437.385
HO-68 19 Jan 08:42:29 08:49:37 68° 292° (WNW) 08:56:43 435.675
CINEMA 3 19 Jan 08:44:14 08:47:31 23° 295° (WNW) 08:50:49 145.822/145.860
CUTE 1.7 + AOD 2 19 Jan 08:50:02 08:53:54 32° 292° (WNW) 08:57:42 437.475
CUTE-I 19 Jan 08:54:25 08:56:03 11° 310° (NW) 08:57:42 437.470
UNISAT 6 19 Jan 08:54:44 08:58:48 46° 70° (ENE) 09:02:53 437.425
PRISM 19 Jan 08:54:45 08:58:50 54° 259° (W) 09:02:57 437.425
ZACube-1 19 Jan 09:03:12 09:07:32 66° 102° (ESE) 09:11:57 437.345
TIGRISAT 19 Jan 09:08:22 09:12:32 59° 72° (ENE) 09:16:44 435.000
CANX-2 19 Jan 09:19:53 09:22:35 16° 299° (WNW) 09:25:15 2200.000
ANTELSAT 19 Jan 09:23:11 09:27:27 88° 68° (ENE) 09:31:45 437.575/2403.000
HUMSAT D 19 Jan 09:26:13 09:29:28 21° 92° (E) 09:32:44 437.325/437.525
NOAA 18 19 Jan 09:31:03 09:32:34 11° 312° (NW) 09:34:06 137.9125
POPSAT HIP 1 19 Jan 09:31:11 09:33:19 14° 59° (ENE) 09:35:25 437.405
RS-15 19 Jan 09:31:12 09:43:09 59° 245° (WSW) 09:54:40 29.354- 29.394
SEEDS 19 Jan 09:33:27 09:36:25 19° 298° (WNW) 09:39:23 437.485
COMPASS 1 19 Jan 09:41:06 09:44:20 22° 296° (WNW) 09:47:33 437.405
Oscar 11 19 Jan 09:42:10 09:46:29 61° 288° (WNW) 09:50:46 145.826/435.025
DUCHIFAT 1 19 Jan 09:43:11 09:45:40 16° 60° (ENE) 09:48:08 145.980
DELFI C3 19 Jan 09:46:04 09:50:01 55° 100° (E) 09:53:56 145.870
NANOSAT C BR1 19 Jan 09:47:35 09:50:27 18° 62° (ENE) 09:53:21 145.865
CUBEBUG 2 19 Jan 09:47:36 09:50:50 21° 296° (WNW) 09:54:07 437.445
AAUSAT CUBESAT 2 19 Jan 09:53:47 09:56:54 20° 297° (WNW) 10:00:00 437.432
PCSat 19 Jan 10:16:21 10:21:43 60° 241° (WSW) 10:27:02 145.827
JAS-2 19 Jan 10:17:26 10:22:47 89° 82° (E) 10:28:46 435.910
FUNcube-1 19 Jan 10:17:34 10:21:12 27° 294° (WNW) 10:24:55 145.935
UWE-3 19 Jan 10:19:04 10:21:49 17° 299° (WNW) 10:24:37 435.000/436.395/437.385
SO-50 19 Jan 10:20:43 10:24:34 25° 326° (NW) 10:28:23 436.795
BUGSAT 1 19 Jan 10:23:01 10:25:19 15° 60° (ENE) 10:27:38 437.445
HO-68 19 Jan 10:31:38 10:36:08 18° 314° (NW) 10:40:36 435.675
UNISAT 6 19 Jan 10:32:41 10:35:46 19° 268° (W) 10:38:53 437.425
QB50P1 19 Jan 10:37:35 10:41:42 59° 73° (ENE) 10:45:51 145.935-145.965
ZACube-1 19 Jan 10:40:39 10:43:23 16° 299° (WNW) 10:46:07 437.345
POLYITAN 1 19 Jan 10:41:20 10:45:28 65° 73° (ENE) 10:49:39 437.675
BY70-1 19 Jan 10:42:26 10:45:28 29° 96° (E) 10:48:21 436.1900
QB50P2 19 Jan 10:42:30 10:46:41 71° 73° (ENE) 10:50:52 145.880/145.840
TIGRISAT 19 Jan 10:47:08 10:49:39 15° 270° (W) 10:52:09 435.000
Cosmos 2491 19 Jan 10:52:26 10:57:04 15° 48° (NE) 11:01:43 435.465 / 435.565
HUMSAT D 19 Jan 11:01:13 11:05:17 44° 290° (WNW) 11:09:22 437.325/437.525
POPSAT HIP 1 19 Jan 11:04:21 11:08:32 76° 257° (WSW) 11:12:45 437.405
ANTELSAT 19 Jan 11:04:30 11:04:49 10° 274° (W) 11:05:07 437.575/2403.000
CUBEBUG 1 19 Jan 11:04:30 11:07:33 18° 91° (E) 11:10:35 437.445
DUCHIFAT 1 19 Jan 11:16:44 11:20:53 64° 259° (WSW) 11:25:02 145.980
AISAT 19 Jan 11:17:53 11:20:45 17° 91° (E) 11:23:37 437.250
AO-7 19 Jan 11:18:41 11:20:38 11° 27° (NNE) 11:22:35 29.400- 29.500
NANOSAT C BR1 19 Jan 11:21:45 11:25:49 52° 260° (W) 11:29:56 145.865
DELFI C3 19 Jan 11:21:55 11:24:25 16° 298° (WNW) 11:26:56 145.870
ESTCUBE 1 19 Jan 11:33:54 11:38:25 59° 101° (E) 11:42:53 437.505/2401.250
RS-15 19 Jan 11:47:12 11:52:39 14° 269° (W) 11:58:02 29.354- 29.394
VELOX 1 19 Jan 11:50:33 11:54:32 33° 96° (E) 11:58:30 145.980
Oscar 19 19 Jan 11:55:21 12:00:11 40° 66° (ENE) 12:05:02 437.125/150
BUGSAT 1 19 Jan 11:56:13 12:00:15 63° 259° (WSW) 12:04:16 437.445
Gurwin Techsat 1B 19 Jan 12:00:49 12:05:13 27° 61° (ENE) 12:09:38 435.225
SO-50 19 Jan 12:05:24 12:06:39 11° 350° (N) 12:07:56 436.795
JAS-2 19 Jan 12:06:13 12:08:59 14° 277° (W) 12:11:52 435.910
BY70-1 19 Jan 12:13:05 12:15:39 20° 295° (WNW) 12:18:08 436.1900
QB50P1 19 Jan 12:15:24 12:17:52 15° 270° (W) 12:20:21 145.935-145.965
50 SAT 19 Jan 12:15:48 12:19:16 45° 99° (E) 12:22:40 437.505
POLYITAN 1 19 Jan 12:19:32 12:21:43 14° 271° (W) 12:23:54 437.675
QB50P2 19 Jan 12:21:05 12:22:58 13° 272° (W) 12:24:51 145.880/145.840
DX 1 19 Jan 12:26:27 12:30:30 37° 98° (E) 12:34:31 434.975-435.025
SPROUT 19 Jan 12:27:42 12:31:56 60° 102° (ESE) 12:36:08 437.525
UKube-1 19 Jan 12:28:00 12:31:47 29° 96° (E) 12:35:33 .
ITAMSAT 1 19 Jan 12:38:27 12:41:06 14° 54° (NE) 12:43:47 435.822/435.867
CUBEBUG 1 19 Jan 12:39:56 12:44:09 50° 289° (WNW) 12:48:19 437.445
CUSAT 1 19 Jan 12:42:05 12:48:45 29° 61° (ENE) 12:55:16 437.405
Cosmos 2491 19 Jan 12:47:37 12:56:16 58° 74° (ENE) 13:04:54 435.465 / 435.565
AISAT 19 Jan 12:53:16 12:57:36 57° 289° (WNW) 13:01:53 437.250
AIST 1 19 Jan 12:58:28 13:00:56 15° 84° (E) 13:03:21
YUBILEINY 19 Jan 13:00:38 13:07:26 26° 78° (ENE) 13:14:15 435.215
AO-7 19 Jan 13:03:41 13:10:50 33° 52° (NE) 13:18:00 29.400- 29.500
Cosmos 2504 19 Jan 13:04:53 13:08:39 14° 72° (ENE) 13:12:19 435.465 / 435.565
ESTCUBE 1 19 Jan 13:11:37 13:14:48 19° 299° (WNW) 13:17:59 437.505/2401.250
DANDE 19 Jan 13:20:44 13:26:19 22° 59° (ENE) 13:32:22 436.750
VELOX 1 19 Jan 13:27:07 13:30:56 29° 295° (WNW) 13:34:44 145.980
Oscar 19 19 Jan 13:34:57 13:39:35 32° 265° (W) 13:44:14 437.125/150
ITUPSAT 1 19 Jan 13:35:41 13:37:15 11° 87° (E) 13:38:48 437.325
Gurwin Techsat 1B 19 Jan 13:39:44 13:44:53 51° 260° (W) 13:50:06 435.225
SO-50 19 Jan 13:47:22 13:49:12 12° 15° (NNE) 13:51:02 436.795
50 SAT 19 Jan 13:49:57 13:52:09 16° 297° (WNW) 13:54:20 437.505
TISAT 1 19 Jan 13:59:32 14:03:44 85° 105° (ESE) 14:07:54 437.305
DX 1 19 Jan 14:02:56 14:06:32 26° 296° (WNW) 14:10:07 434.975-435.025
UKube-1 19 Jan 14:03:59 14:07:50 32° 294° (WNW) 14:11:39 .
SPROUT 19 Jan 14:04:42 14:07:26 17° 299° (WNW) 14:10:10 437.525
BEESAT 19 Jan 14:09:12 14:13:06 24° 93° (E) 14:17:00 436.000
BRITE-PL 19 Jan 14:09:13 14:10:20 11° 51° (NE) 14:11:26 437.365/2234.400
SWISSCUBE 19 Jan 14:10:35 14:14:42 28° 95° (E) 14:18:48 437.505
ITAMSAT 1 19 Jan 14:14:36 14:19:46 79° 73° (ENE) 14:24:59 435.822/435.867
AO-85 19 Jan 14:22:15 14:26:49 58° 123° (ESE) 14:31:04 145.980
CUSAT 1 19 Jan 14:23:32 14:31:32 81° 262° (W) 14:39:10 437.405
AIST 1 19 Jan 14:33:41 14:38:00 61° 282° (WNW) 14:42:20
O/OREOS (USA 219) 19 Jan 14:40:54 14:44:01 18° 47° (NE) 14:47:08 437.305
Cosmos 2491 19 Jan 14:44:59 14:52:45 37° 276° (W) 15:00:32 435.465 / 435.565
Cosmos 2504 19 Jan 14:51:58 15:00:29 64° 93° (E) 15:08:29 435.465 / 435.565
YUBILEINY 19 Jan 14:54:25 15:03:15 80° 280° (W) 15:12:10 435.215
AO-7 19 Jan 14:54:37 15:02:59 74° 253° (WSW) 15:11:26 29.400- 29.500
DANDE 19 Jan 15:02:28 15:09:59 81° 78° (ENE) 15:18:24 436.750
ITUPSAT 1 19 Jan 15:10:58 15:15:49 86° 107° (ESE) 15:20:38 437.325
HORYU 2 19 Jan 15:14:29 15:16:47 14° 57° (ENE) 15:19:06 437.375
SO-50 19 Jan 15:26:59 15:31:04 32° 39° (NE) 15:35:07 436.795
TISAT 1 19 Jan 15:37:02 15:38:44 12° 303° (WNW) 15:40:26 437.305
BRITE-PL 19 Jan 15:42:08 15:47:38 52° 70° (ENE) 15:53:03 437.365/2234.400
BEESAT 19 Jan 15:46:31 15:51:06 46° 292° (WNW) 15:55:39 436.000
SWISSCUBE 19 Jan 15:48:07 15:52:37 40° 293° (WNW) 15:57:05 437.505
MOZHAYETS 4 19 Jan 15:50:27 15:55:06 74° 102° (ESE) 15:59:45
GOMX 1 19 Jan 15:52:15 15:56:49 29° 65° (ENE) 16:01:12 467.674
ITAMSAT 1 19 Jan 15:56:50 15:59:52 16° 271° (W) 16:02:56 435.822/435.867
STARS 19 Jan 15:58:11 16:00:34 14° 89° (E) 16:02:57 437.465
NOAA 18 19 Jan 16:00:40 16:02:56 13° 50° (NE) 16:05:11 137.9125
Cubesat XI-IV 19 Jan 16:02:23 16:06:02 19° 57° (ENE) 16:09:41 437.490
AO-85 19 Jan 16:03:42 16:07:30 26° 322° (NW) 16:11:05 145.980
CUSAT 1 19 Jan 16:06:58 16:12:20 20° 281° (W) 16:17:34 437.405
M-CUBED/EXP-1 PRIME 19 Jan 16:11:40 16:14:49 33° 103° (ESE) 16:17:50 437.505
BEESAT 3 19 Jan 16:12:42 16:15:57 25° 116° (ESE) 16:19:15 437.485
NOAA 15 19 Jan 16:14:06 16:18:19 25° 60° (ENE) 16:22:32 137.62
O/OREOS (USA 219) 19 Jan 16:19:27 16:23:56 73° 247° (WSW) 16:28:26 437.305
LilacSat-2 19 Jan 16:29:03 16:31:58 21° 65° (ENE) 16:34:54 437.200
CUBESAT XI-V 19 Jan 16:33:44 16:38:04 35° 96° (E) 16:42:20 437.345
DOVE 4 19 Jan 16:36:28 16:40:42 29° 66° (ENE) 16:44:45 437.250
KKS-1 19 Jan 16:37:11 16:41:38 71° 104° (ESE) 16:46:02 437.445
DANDE 19 Jan 16:46:06 16:52:11 27° 275° (W) 16:58:43 436.750
Cosmos 2504 19 Jan 16:46:45 16:54:22 34° 294° (WNW) 17:01:36 435.465 / 435.565
HORYU 2 19 Jan 16:48:19 16:52:44 81° 255° (WSW) 16:57:11 437.375
AUBIESAT-1 19 Jan 16:48:58 16:52:24 80° 109° (ESE) 16:55:42 437.475
ITUPSAT 1 19 Jan 16:50:15 16:53:00 15° 303° (WNW) 16:55:45 437.325
AO-7 19 Jan 16:52:09 16:57:12 17° 274° (W) 17:02:18 29.400- 29.500
BEESAT 2 19 Jan 16:55:07 16:58:37 31° 118° (ESE) 17:02:11 435.950
YUBILEINY 19 Jan 16:55:18 17:01:41 21° 305° (NW) 17:08:07 435.215
CUTE-I 19 Jan 16:57:32 17:02:38 50° 68° (ENE) 17:07:45 437.470
SO-50 19 Jan 17:07:23 17:11:42 46° 239° (WSW) 17:15:58 436.795
BRITE-PL 19 Jan 17:21:27 17:26:18 28° 268° (W) 17:31:07 437.365/2234.400
HO-68 19 Jan 17:27:59 17:34:08 32° 56° (ENE) 17:40:18 435.675
MOZHAYETS 4 19 Jan 17:28:51 17:31:43 16° 301° (WNW) 17:34:35
GOMX 1 19 Jan 17:29:31 17:34:42 46° 262° (W) 17:39:40 467.674
STARS 19 Jan 17:33:02 17:37:23 67° 287° (WNW) 17:41:43 437.465
NOAA 18 19 Jan 17:37:09 17:42:35 64° 70° (ENE) 17:48:01 137.9125
Cubesat XI-IV 19 Jan 17:40:12 17:45:31 77° 256° (WSW) 17:50:53 437.490
M-CUBED/EXP-1 PRIME 19 Jan 17:46:39 17:49:07 18° 303° (WNW) 17:51:30 437.505
BEESAT 3 19 Jan 17:49:42 17:53:25 40° 316° (NW) 17:57:11 437.485
GONETS M04 19 Jan 17:52:25 17:55:22 12° 68° (ENE) 17:58:18
NOAA 15 19 Jan 17:52:31 17:57:44 58° 259° (W) 18:02:59 137.62
LilacSat-2 19 Jan 18:02:37 18:06:04 34° 263° (W) 18:09:35 437.200
CUTE 1.7 + AOD 2 19 Jan 18:10:11 18:13:57 32° 67° (ENE) 18:17:46 437.475
CUBESAT XI-V 19 Jan 18:11:15 18:15:22 31° 294° (WNW) 18:19:28 437.345
CINEMA 3 19 Jan 18:11:25 18:15:44 55° 72° (ENE) 18:19:54 145.822/145.860
DOVE 4 19 Jan 18:13:37 18:18:17 39° 262° (W) 18:22:44 437.250
KKS-1 19 Jan 18:15:01 18:17:40 16° 302° (WNW) 18:20:19 437.445
BEESAT 2 19 Jan 18:32:41 18:36:22 35° 317° (NW) 18:40:05 435.950
CUTE-I 19 Jan 18:38:32 18:42:56 26° 267° (W) 18:47:23 437.470
CANX-2 19 Jan 18:38:41 18:42:54 70° 74° (ENE) 18:47:12 2200.000
AIST 2 19 Jan 18:47:50 18:49:11 11° 109° (ESE) 18:50:32 435.215
SEEDS 19 Jan 18:51:36 18:55:44 56° 72° (ENE) 18:59:55 437.485
COMPASS 1 19 Jan 18:58:44 19:02:44 45° 71° (ENE) 19:06:47 437.405
Oscar 11 19 Jan 19:05:23 19:08:30 20° 62° (ENE) 19:11:39 145.826/435.025
Cosmos 2499 19 Jan 19:08:05 19:15:52 45° 89° (E) 19:23:09 435.465 / 435.565
AAUSAT CUBESAT 2 19 Jan 19:10:51 19:14:52 47° 71° (ENE) 19:18:54 437.432
CUBEBUG 2 19 Jan 19:11:48 19:15:54 58° 72° (ENE) 19:19:59 437.445
HO-68 19 Jan 19:14:17 19:21:25 65° 257° (WSW) 19:28:37 435.675
NOAA 18 19 Jan 19:19:33 19:23:41 22° 268° (W) 19:27:51 137.9125
Cubesat XI-IV 19 Jan 19:24:45 19:26:29 11° 275° (W) 19:28:14 437.490
BEESAT 3 19 Jan 19:30:48 19:32:05 11° 338° (NNW) 19:33:23 437.485
STRAND 1 19 Jan 19:35:44 19:40:53 69° 103° (ESE) 19:46:00 437.568
FUNcube-1 19 Jan 19:39:58 19:43:50 41° 70° (ENE) 19:47:46 145.935
GONETS M04 19 Jan 19:41:41 19:50:07 58° 91° (E) 19:58:39
UWE-3 19 Jan 19:41:50 19:45:58 77° 73° (ENE) 19:50:08 435.000/436.395/437.385
CUTE 1.7 + AOD 2 19 Jan 19:46:06 19:49:47 28° 265° (W) 19:53:31 437.475
CINEMA 3 19 Jan 19:50:22 19:53:12 17° 269° (W) 19:55:58 145.822/145.860
